Terminal Aerodrome Forecast
Issued by NWS

Home | Current Version | Previous Version | Text Only | Print | Product List | Glossary Off
Versions: 1 2 3 4 5 6 7 8 9 10 11 12 13 14 15 16 17 18 19

256
FTUS43 KFGF 051628 AAA
TAFBJI
TAF AMD
KBJI 051628Z 0516/0612 10008KT P6SM OVC005
     FM052300 10009KT 1 1/2SM -SN OVC008
     FM060300 13008KT 2SM -SN OVC003
     FM060500 19009KT 4SM -SN OVC008
     FM060800 22010G18KT 4SM -SN OVC008=

USA.gov is the U.S. government's official web portal to all federal, state and local government web resources and services.